Location: Unspecified
(40.7945°N, 111.1337°W)
Time: 18:35:29
(UTC-06:00)

Okean 3 - Visible Passes

Search period start: 22 March 2019 00:00
Search period end: 01 April 2019 00:00
Orbit: 578 x 601 km, 82.5° (Epoch: 22 March)

Date Brightness Start Highest point End Pass type
(mag) Time Alt. Az. Time Alt. Az. Time Alt. Az.
22 Mar 5.6 05:32:19 10° SSE 05:35:56 27° E 05:39:35 10° NNE visible
23 Mar 4.8 05:39:48 10° SSE 05:43:49 41° E 05:47:52 10° NNE visible
24 Mar 3.9 05:47:30 10° S 05:51:44 63° E 05:56:00 10° NNE visible
25 Mar 3.4 05:55:24 10° S 05:59:41 84° W 06:04:01 10° N visible
26 Mar 6.5 04:29:30 10° ESE 04:31:00 12° E 04:32:30 10° ENE visible
26 Mar 3.6 06:03:34 10° SSW 06:07:41 55° W 06:11:55 10° N visible
27 Mar 6.1 04:35:58 10° SE 04:38:47 17° E 04:41:38 10° NE visible
27 Mar 4.1 06:12:19 13° SW 06:15:43 36° WNW 06:19:43 10° N visible
28 Mar 5.5 04:44:22 17° SE 04:46:38 25° E 04:50:11 10° NNE visible
28 Mar 4.6 06:20:56 13° SW 06:23:47 25° WNW 06:27:21 10° NNW visible
29 Mar 4.8 04:52:53 27° SE 04:54:30 38° E 04:58:29 10° NNE visible
29 Mar 5.1 06:29:27 12° WSW 06:31:54 17° WNW 06:34:46 10° NNW visible
30 Mar 4.0 05:01:20 43° SSE 05:02:25 58° E 05:06:39 10° NNE visible
30 Mar 5.5 06:38:28 10° W 06:40:03 12° WNW 06:41:39 10° NW visible
31 Mar 3.4 05:09:42 64° S 05:10:21 89° ESE 05:14:41 10° N visible
